Stations météo

réclame
Mon MeteoGroup
Brüssel, Belgique (6451): Température de l'air & dewpoint: 17.09.2017 23:00:00 - 23.09.2017 23:00:00 (CEST)Brüssel, Belgique (6451): Vitesse du vent & gusts: 17.09.2017 23:00:00 - 23.09.2017 23:00:00 (CEST)Brüssel, Belgique (6451): Direction du vent: 17.09.2017 23:00:00 - 23.09.2017 23:00:00 (CEST)Brüssel, Belgique (6451): reduced air pressure: 17.09.2017 23:00:00 - 23.09.2017 23:00:00 (CEST)Brüssel, Belgique (6451): visibility: 17.09.2017 23:00:00 - 23.09.2017 23:00:00 (CEST)
Date & Time tt [°C] td [°C] ff [km/h] ff [knt] fx [km/h] fx [knt] dd ppp [hPa] vv [km]
23.09.2017 23:00:00 9,5 8,0 5 3 - - E 1023,2 10
23.09.2017 22:00:00 11,4 8,4 4 2 7 4 - 1023,4 10
23.09.2017 21:00:00 13,0 7,9 5 3 7 4 E 1023,1 10
23.09.2017 20:00:00 14,0 8,6 4 2 - - ENE 1023,2 10
23.09.2017 19:00:00 15,4 9,3 4 2 14 8 ENE 1023,1 10
23.09.2017 18:00:00 16,5 7,9 5 3 14 8 E 1023,1 10
23.09.2017 17:00:00 16,7 8,0 8 4 - - E 1023,2 10
23.09.2017 16:00:00 16,5 9,1 9 5 14 8 ENE 1024,1 10
23.09.2017 15:00:00 16,1 9,2 8 4 14 8 E 1024,6 10
23.09.2017 14:00:00 15,4 9,8 5 3 - - ENE 1024,8 10
23.09.2017 13:00:00 14,7 11,1 5 3 14 8 E 1025,0 10
23.09.2017 12:00:00 12,4 10,6 4 2 14 8 - 1025,3 8
23.09.2017 11:00:00 10,6 9,9 8 4 - - SE 1025,4 0,6
23.09.2017 10:00:00 10,6 9,6 9 5 11 6 SE 1024,9 1,5
23.09.2017 09:00:00 10,3 9,2 0 0 7 4 N 1024,9 4,0
23.09.2017 08:00:00 7,2 6,6 4 2 - - SSW 1024,8 2,5
23.09.2017 07:00:00 6,4 6,0 2 1 4 2 SSE 1024,6 0,4
23.09.2017 06:00:00 6,8 6,3 4 2 7 4 S 1024,5 3,3
23.09.2017 05:00:00 7,0 6,4 4 2 - - SSE 1024,5 3,8
23.09.2017 04:00:00 7,5 6,9 4 2 4 2 SSW 1024,6 5
23.09.2017 03:00:00 8,0 7,2 2 1 4 2 W 1024,6 5
23.09.2017 02:00:00 8,5 7,8 2 1 - - SSW 1024,3 7
23.09.2017 01:00:00 9,3 8,5 4 2 4 2 SW 1024,1 8
23.09.2017 00:00:00 9,4 8,6 0 0 0 0 N 1024,0 9
22.09.2017 23:00:00 10,2 9,3 0 0 - - N 1024,0 10
22.09.2017 22:00:00 12,6 10,2 4 2 11 6 - 1023,7 10
22.09.2017 21:00:00 12,8 10,9 5 3 11 6 NNW 1023,3 10
22.09.2017 20:00:00 14,5 11,5 5 3 - - N 1022,6 10
22.09.2017 19:00:00 16,0 12,5 9 5 18 10 NNW 1022,0 10
22.09.2017 18:00:00 16,8 13,2 8 4 18 10 WNW 1021,7 10
22.09.2017 17:00:00 16,5 12,4 11 6 - - W 1021,6 10
22.09.2017 16:00:00 17,6 11,9 8 4 14 8 SW 1021,5 10
22.09.2017 15:00:00 16,4 12,3 9 5 14 8 SW 1021,4 10
22.09.2017 14:00:00 15,6 12,6 9 5 - - W 1021,5 10
22.09.2017 13:00:00 15,9 11,9 9 5 14 8 W 1021,3 10
22.09.2017 12:00:00 15,9 12,3 5 3 7 4 W 1021,2 10
22.09.2017 11:00:00 15,1 12,1 4 2 - - - 1020,9 10
22.09.2017 10:00:00 14,6 11,7 4 2 7 4 - 1020,6 10
22.09.2017 09:00:00 11,7 9,9 5 3 7 4 SW 1020,3 10
22.09.2017 08:00:00 9,6 8,6 5 3 - - SSW 1020,0 10
22.09.2017 07:00:00 9,7 8,2 4 2 7 4 SSW 1019,6 30
22.09.2017 06:00:00 8,8 7,6 5 3 11 6 SSW 1019,4 10
22.09.2017 05:00:00 9,7 8,3 9 5 - - S 1019,3 10
22.09.2017 04:00:00 10,2 8,6 9 5 11 6 S 1019,5 10
22.09.2017 03:00:00 10,9 9,0 11 6 11 6 S 1019,6 10
22.09.2017 02:00:00 10,7 8,9 9 5 - - S 1019,7 10
22.09.2017 01:00:00 10,8 9,0 9 5 11 6 S 1019,5 10
22.09.2017 00:00:00 11,2 9,0 8 4 7 4 S 1019,5 10
21.09.2017 23:00:00 11,9 9,8 8 4 - - S 1019,6 10
21.09.2017 22:00:00 11,8 9,8 8 4 7 4 SSW 1019,6 10
21.09.2017 21:00:00 13,2 10,7 5 3 7 4 SSW 1019,5 10
21.09.2017 20:00:00 14,6 11,5 5 3 - - S 1019,0 10
21.09.2017 19:00:00 17,1 10,0 8 4 11 6 SSE 1018,6 10
21.09.2017 18:00:00 17,9 10,8 8 4 18 10 S 1018,5 10
21.09.2017 17:00:00 18,5 9,0 9 5 - - S 1018,7 10
21.09.2017 16:00:00 18,9 9,7 13 7 22 12 S 1018,9 10
21.09.2017 15:00:00 18,0 9,0 9 5 - - S - 10
21.09.2017 14:00:00 18,0 10,0 11 6 - - S - 10
21.09.2017 13:00:00 17,0 9,0 15 8 - - S - 10
21.09.2017 12:00:00 16,0 9,0 11 6 - - S - 10
21.09.2017 11:00:00 14,0 8,8 16 9 - - S 1020,7 10
21.09.2017 10:00:00 12,3 8,2 15 8 22 12 S 1020,5 10
21.09.2017 09:00:00 10,2 7,4 15 8 22 12 S 1020,3 10
21.09.2017 08:00:00 9,3 7,0 15 8 - - S 1020,2 10
21.09.2017 07:00:00 9,3 7,3 15 8 18 10 S 1020,2 10
21.09.2017 06:00:00 9,6 7,5 15 8 22 12 S 1020,3 10
21.09.2017 05:00:00 9,8 7,5 15 8 - - S 1020,3 10
21.09.2017 04:00:00 10,1 7,7 13 7 18 10 S 1020,5 10
21.09.2017 03:00:00 10,5 8,1 13 7 18 10 S 1020,7 10
21.09.2017 02:00:00 11,0 8,6 9 5 - - S 1020,9 10
21.09.2017 01:00:00 11,3 8,7 9 5 14 8 S 1020,8 10
21.09.2017 00:00:00 12,5 9,3 11 6 14 8 S 1020,8 10
20.09.2017 23:00:00 12,7 9,9 9 5 - - S 1020,8 10
20.09.2017 22:00:00 12,5 10,1 9 5 11 6 S 1020,8 10
20.09.2017 21:00:00 13,4 10,1 8 4 14 8 S 1020,8 10
20.09.2017 20:00:00 13,7 9,5 8 4 - - SSW 1020,7 10
20.09.2017 19:00:00 15,2 8,1 13 7 25 14 SW 1020,6 10
20.09.2017 18:00:00 16,1 9,4 16 9 29 16 SW 1020,6 10
20.09.2017 17:00:00 16,1 9,5 18 10 - - SW 1020,8 10
20.09.2017 16:00:00 16,5 9,3 11 6 22 12 WSW 1021,0 10
20.09.2017 15:00:00 16,2 9,1 11 6 22 12 W 1021,2 10
20.09.2017 14:00:00 16,1 9,2 11 6 - - WSW 1021,6 10
20.09.2017 13:00:00 15,8 9,3 13 7 22 12 W 1021,7 10
20.09.2017 12:00:00 14,7 9,4 16 9 25 14 WSW 1021,9 10
20.09.2017 11:00:00 13,9 9,4 16 9 - - WSW 1021,7 10
20.09.2017 10:00:00 12,0 9,1 15 8 22 12 SW 1021,8 10
20.09.2017 09:00:00 10,0 8,2 11 6 18 10 SW 1021,8 10
20.09.2017 08:00:00 9,2 8,0 11 6 - - SSW 1021,7 8
20.09.2017 07:00:00 8,9 7,8 9 5 11 6 SSW 1021,5 10
20.09.2017 06:00:00 9,4 8,4 8 4 11 6 SW 1021,5 10
20.09.2017 05:00:00 10,3 9,2 9 5 - - SW 1021,5 10
20.09.2017 04:00:00 10,7 9,7 9 5 14 8 WSW 1021,7 10
20.09.2017 03:00:00 11,0 10,0 8 4 11 6 SW 1021,9 10
20.09.2017 02:00:00 11,4 10,5 8 4 - - WSW 1022,0 10
20.09.2017 01:00:00 11,7 10,6 5 3 11 6 WNW 1022,0 10
20.09.2017 00:00:00 11,5 10,1 4 2 11 6 WSW 1022,2 10
19.09.2017 23:00:00 12,0 9,4 9 5 - - W 1022,1 10
19.09.2017 22:00:00 12,2 9,8 8 4 11 6 WNW 1021,8 10
19.09.2017 21:00:00 13,0 10,0 8 4 - - NW - 10
19.09.2017 20:00:00 13,0 9,5 8 4 - - NW 1021,5 10
19.09.2017 19:00:00 15,0 9,3 9 5 22 12 NW 1020,4 10
19.09.2017 18:00:00 15,9 8,1 15 8 18 10 NW 1020,1 10
19.09.2017 17:00:00 16,1 8,6 9 5 - - N 1019,9 10
19.09.2017 16:00:00 16,5 8,1 8 4 18 10 N 1019,7 10
19.09.2017 15:00:00 16,4 8,4 11 6 22 12 NNW 1019,8 10
19.09.2017 14:00:00 15,8 9,0 9 5 - - NNW 1019,6 10
19.09.2017 13:00:00 14,8 10,4 8 4 18 10 N 1019,7 10
19.09.2017 12:00:00 14,2 10,3 9 5 22 12 WNW 1019,1 10
19.09.2017 11:00:00 12,9 10,5 11 6 - - WNW 1018,9 10
19.09.2017 10:00:00 12,2 10,1 15 8 18 10 WNW 1018,1 10
19.09.2017 09:00:00 11,2 9,7 11 6 18 10 W 1017,4 10
19.09.2017 08:00:00 10,3 9,0 9 5 - - W 1017,2 10
19.09.2017 07:00:00 10,3 9,0 9 5 18 10 WSW 1016,8 10
19.09.2017 06:00:00 10,3 9,2 11 6 25 14 W 1016,5 10
19.09.2017 05:00:00 10,7 9,3 15 8 - - WSW 1016,4 10
19.09.2017 04:00:00 11,0 9,0 13 7 - - WSW - 10
19.09.2017 03:00:00 10,2 9,0 11 6 22 12 WSW 1016,4 10
19.09.2017 02:00:00 10,8 9,4 15 8 - - W 1016,3 10
19.09.2017 01:00:00 10,8 9,4 13 7 22 12 W 1016,3 10
19.09.2017 00:00:00 11,2 9,8 13 7 22 12 W 1016,3 10
18.09.2017 23:00:00 11,2 9,8 13 7 - - WSW 1016,3 10
18.09.2017 22:00:00 11,0 10,0 13 7 - - WSW - 10
18.09.2017 21:00:00 11,7 10,1 9 5 18 10 WSW 1016,1 10
18.09.2017 20:00:00 11,9 10,1 11 6 - - WSW 1015,7 10
18.09.2017 19:00:00 12,5 10,0 13 7 22 12 W 1015,2 10
18.09.2017 18:00:00 12,6 10,4 15 8 29 16 W 1015,0 10
18.09.2017 17:00:00 11,1 8,4 16 9 - - WSW 1015,1 3,0
18.09.2017 16:00:00 14,1 10,4 16 9 25 14 WSW 1014,7 10
18.09.2017 15:00:00 13,5 10,9 13 7 22 12 SW 1014,7 10
18.09.2017 14:00:00 11,0 9,0 15 8 - - W - 7
18.09.2017 13:00:00 14,8 9,9 16 9 29 16 WSW 1014,5 10
18.09.2017 12:00:00 13,9 10,1 16 9 25 14 WSW 1014,8 10
18.09.2017 11:00:00 13,3 10,4 16 9 - - SW 1014,7 10
18.09.2017 10:00:00 11,8 9,8 15 8 25 14 WSW 1014,7 10
18.09.2017 09:00:00 10,7 9,3 16 9 22 12 SW 1014,4 10
18.09.2017 08:00:00 10,0 8,7 11 6 - - SW 1014,2 10
18.09.2017 07:00:00 10,0 8,7 11 6 18 10 WSW 1013,9 10
18.09.2017 06:00:00 9,4 8,3 11 6 18 10 SW 1013,7 10
18.09.2017 05:00:00 9,5 8,3 13 7 - - SW 1013,7 10
18.09.2017 04:00:00 9,3 8,1 13 7 18 10 SW 1013,9 10
18.09.2017 03:00:00 9,1 7,9 11 6 14 8 SSW 1013,9 10
18.09.2017 02:00:00 9,6 8,2 11 6 - - SSW 1013,9 10
18.09.2017 01:00:00 11,0 10,0 9 5 - - SSW - 8
18.09.2017 00:00:00 11,1 9,4 9 5 14 8 W 1014,4 10
17.09.2017 23:00:00 11,0 9,7 11 6 - - W 1014,4 5

tt = Température de l'air
td = dewpoint
ff = Vitesse du vent
fx = gusts
dd = Direction du vent
ppp = reduced air pressure
vv = visibility

stations d'obs. à proximité